[[{"header":{"parameterUnit":"m.s-1","parameterCategory":1,"la1":30.2991,"la2":30.254,"lo1":-89.0895,"lo2":-89.0444,"dy":0.0017,"dx":0.0017,"nx":28,"ny":28,"refTime":"2025-06-16T03:00:00:Z","depth":0,"parameterNumber":2,"parameterNumberName":"U-component_of_WINDS"},"data":[0,0,0,0,0,0,0,0,0,0,0,0,0,0,0,0,0,0,0,0,0,0,0,0,0,0,0,0,0,0,0,0,0,0,0,0,0,0,0,0,0,0,0,0,0,0,0,0,0,0,0,0,0,0,0,0,0,0,0.9898,0.9901,0,1.0116,1.0119,1.0121,1.017,1.0168,1.0167,1.0165,1.0385,1.0392,1.04,0,0,0,0,0,0,0,0,0,0,0,0,0,0.9519,0.9526,0.9898,0.9901,0.9904,1.0116,1.0119,1.0122,1.017,1.0168,1.0166,1.0164,1.0383,1.0392,1.04,0,0,0,0,0,0,0,0,0,0,0,0,0,0.9705,0.9528,0.9898,0.9953,0.996,1.0115,1.0119,1.0123,1.017,1.0168,1.0166,1.0164,1.038,1.0391,1.0402,1.0516,0,0,1.0435,1.044,0,0,0,0,0,0,0,0,0.9694,0.9719,0.9942,0.995,0.9958,1.0114,1.0066,1.0254,1.0171,1.0091,1.0165,1.0162,1.0297,1.0314,1.036,1.0526,1.0536,1.0436,1.0443,1.0447,1.0451,0,0,0,0,0,0,0,0.9681,0.971,0.9984,0.9945,0.9955,0.9966,0.999,1.0102,1.0204,1.0097,1.0101,1.0127,1.03,1.035,1.0366,1.0539,1.0436,1.0445,1.0452,1.0457,1.0808,1.0811,0,0,0,0,0,0,0.9659,0.9699,0.9977,0.9991,0.9818,0.9975,1.0001,1.0066,1.0203,1.0221,1.0128,1.0128,1.0332,1.0353,1.0374,1.0517,1.0447,1.0458,1.0464,1.0805,1.0809,1.0812,0,0,0,0,0,0,0.9651,0.9684,0.9969,0.9846,0.9883,0.9984,1.0056,1.0071,1.0121,1.0226,1.0244,1.016,1.0331,1.0358,1.048,1.0525,1.0463,1.0473,1.0802,1.0806,1.081,1.0803,0,0,0,0,0,0,0.964,0.968,0.9726,0.9847,0.9889,1.0073,1.0059,1.0077,1.014,1.0142,1.0261,1.0279,1.0331,1.0463,1.0491,1.0539,1.0481,1.0799,1.0804,1.0809,1.0799,1.0806,1.0812,0,0,0,0,0,0.9626,0.9715,0.9728,0.9761,0.9949,1.0075,1.01,1.016,1.0143,1.0189,1.0257,1.0275,1.0515,1.0476,1.0507,1.0559,1.0796,1.0803,1.0809,1.0797,1.0805,1.0812,0,0,0,0,0,0,0.9596,0.9732,0.9748,0.9878,0.9965,1.0083,1.0143,1.0166,1.0259,1.0256,1.0325,1.0352,1.0469,1.0526,1.048,1.0676,1.0655,1.0667,1.0635,1.0644,1.065,1.0634,1.049,0,0,0,0,0,0.9604,0.9697,0.981,0.9914,0.9957,1.0042,1.01,1.0138,1.023,1.0267,1.0344,1.0431,1.0526,1.0588,1.0681,1.0807,1.0833,1.0858,1.0864,1.0868,1.0879,1.0949,1.0961,1.0832,1.0832,1.0832,0,0,0.9623,0.9708,0.9763,0.991,0.9982,1.0075,1.0073,1.0172,1.0241,1.0282,1.0402,1.0461,1.0563,1.0687,1.0746,1.0738,1.092,1.0876,1.0879,1.0888,1.0957,1.0969,1.098,1.0836,1.0836,1.0835,0,0,0.9705,0.9779,0.9874,0.9946,1.0054,1.011,1.0133,1.0248,1.0289,1.0411,1.0442,1.0525,1.0688,1.0759,1.0817,1.0924,1.0944,1.0952,1.0985,1.1052,1.1062,1.1072,1.111,1.1123,1.0962,1.0962,1.0962,0,0.9714,0.9858,0.9919,1.0017,1.0081,1.0122,1.0217,1.0284,1.0417,1.0459,1.0448,1.0653,1.0725,1.0866,1.0892,1.0937,1.0964,1.094,1.1056,1.1066,1.1076,1.1113,1.1127,1.0962,1.0962,1.0962,1.0962,0,0.9864,0.9962,1.0025,1.0154,1.0224,1.032,1.0395,1.0459,1.049,1.0547,1.0669,1.0756,1.0868,1.0904,1.0936,1.105,1.1042,1.1042,1.1023,1.1087,1.1124,1.1138,1.0963,1.0963,1.0962,1.0962,0,0,0.9935,1.0095,1.0118,1.0176,1.0298,1.0375,1.0472,1.0582,1.0635,1.0724,1.0807,1.0943,1.0945,1.101,1.1049,1.1108,1.1187,1.1102,1.1105,1.1115,1.1318,1.1317,1.1333,1.12,1.1203,1.1205,1.1309,0,1.0032,1.0209,1.0267,1.0413,1.0505,1.0543,1.0628,1.0711,1.0765,1.085,1.0909,1.1005,1.0999,1.1039,1.1099,1.1165,1.1229,1.1158,1.1277,1.1281,1.1252,1.1352,1.1352,1.1446,1.1324,1.1326,1.1328,0,1.0171,1.0264,1.0419,1.0529,1.057,1.0645,1.075,1.083,1.0924,1.0959,1.1031,1.1066,1.1167,1.114,1.128,1.123,1.1282,1.1321,1.1326,1.1341,1.1309,1.137,1.1478,1.1492,1.1351,1.1349,1.1348,0,1.0208,1.0371,1.0486,1.0535,1.0665,1.0717,1.0773,1.0865,1.0927,1.1018,1.1059,1.1159,1.1215,1.1291,1.1351,1.1326,1.1486,1.1464,1.1518,1.1516,1.1551,1.1548,1.167,1.1582,1.1582,1.1581,1.1581,0,1.0312,1.0406,1.0504,1.0575,1.0681,1.0745,1.0847,1.0905,1.0986,1.1068,1.1106,1.1181,1.1255,1.134,1.1387,1.1495,1.152,1.1551,1.1562,1.1548,1.1545,1.1584,1.158,1.1585,1.1584,1.1584,1.1583,0,1.0373,1.0443,1.057,1.0683,1.0713,1.0786,1.0882,1.0951,1.1006,1.1109,1.1136,1.1223,1.1324,1.1391,1.152,1.1551,1.167,1.1679,1.1639,1.1645,1.1695,1.169,1.1847,1.1871,1.1766,1.1767,1.1767,0,1.0436,1.0509,1.0629,1.0687,1.0744,1.0837,1.09,1.0965,1.1029,1.1141,1.1196,1.13,1.1387,1.1546,1.162,1.1718,1.1731,1.1779,1.1746,1.1729,1.1733,1.1728,1.1736,1.1785,1.1786,1.1787,1.1787,0,1.054,1.057,1.0661,1.0764,1.0839,1.0922,1.1006,1.1051,1.1129,1.1199,1.1304,1.1371,1.1502,1.1605,1.171,1.1766,1.179,1.1796,1.1814,1.1802,1.1776,1.1791,1.1654,1.1793,1.1793,1.1792,1.1792,1.1792,1.0604,1.0671,1.0767,1.0866,1.0936,1.1013,1.1083,1.1147,1.1236,1.1349,1.138,1.1489,1.1579,1.1723,1.1781,1.1866,1.1861,1.1886,1.1893,1.1899,1.1899,1.176,1.1885,1.1885,1.1885,1.1885,1.1884,0,1.0711,1.0774,1.0865,1.0981,1.1059,1.1074,1.1167,1.1231,1.1327,1.1409,1.1494,1.1613,1.1712,1.1792,1.1894,1.1946,1.1959,1.1971,1.1968,1.1981,1.1898,1.1873,1.1958,1.1958,1.1958,1.1958,1.1958,1.1958,1.0776,1.089,1.0932,1.108,1.1141,1.1249,1.1301,1.1372,1.1438,1.157,1.1653,1.1704,1.1786,1.1893,1.1984,1.2005,1.2041,1.205,1.2073,1.1995,1.1987,1.1979,1.1956,1.2057,1.2057,1.215,1.215,1.2151]},{"header":{"parameterUnit":"m.s-1","parameterCategory":1,"la1":30.2991,"la2":30.254,"lo1":-89.0895,"lo2":-89.0444,"dy":0.0017,"dx":0.0017,"nx":28,"ny":28,"refTime":"2025-06-16T03:00:00:Z","depth":0,"parameterNumber":3,"parameterNumberName":"V-component_of_WINDS"},"data":[0,0,0,0,0,0,0,0,0,0,0,0,0,0,0,0,0,0,0,0,0,0,0,0,0,0,0,0,0,0,0,0,0,0,0,0,0,0,0,0,0,0,0,0,0,0,0,0,0,0,0,0,0,0,0,0,0,0,1.035,1.0355,0,1.0827,1.0833,1.0838,1.0969,1.0966,1.0964,1.0961,1.1468,1.1484,1.1499,0,0,0,0,0,0,0,0,0,0,0,0,0,0.9571,0.9584,1.035,1.0356,1.0362,1.0826,1.0833,1.084,1.097,1.0966,1.0963,1.096,1.1463,1.1482,1.1501,0,0,0,0,0,0,0,0,0,0,0,0,0,0.9965,0.9589,1.0349,1.0482,1.0499,1.0825,1.0833,1.0841,1.097,1.0966,1.0962,1.0958,1.1456,1.148,1.1504,1.1737,0,0,1.1577,1.1588,0,0,0,0,0,0,0,0,0.9942,0.9994,1.0457,1.0474,1.0493,1.0834,1.0744,1.1142,1.0971,1.0792,1.0961,1.0956,1.1262,1.1301,1.1401,1.1761,1.1782,1.158,1.1594,1.1605,1.1611,0,0,0,0,0,0,0,0.9915,0.9974,1.0539,1.0463,1.0486,1.0525,1.0576,1.082,1.1045,1.0807,1.0818,1.0872,1.1271,1.1377,1.1414,1.179,1.1579,1.16,1.1615,1.1625,1.2371,1.2376,0,0,0,0,0,0,0.9862,0.995,1.0524,1.0554,1.0201,1.0542,1.0599,1.0729,1.1043,1.1086,1.0875,1.0876,1.1338,1.1385,1.1432,1.173,1.1604,1.1627,1.1641,1.2365,1.2372,1.2378,0,0,0,0,0,0,0.9845,0.9912,1.0505,1.0255,1.0333,1.056,1.0704,1.0741,1.0847,1.1093,1.1136,1.0941,1.1337,1.1398,1.166,1.1749,1.1638,1.166,1.2359,1.2367,1.2375,1.2323,0,0,0,0,0,0,0.9822,0.9905,0.9991,1.0256,1.0346,1.0719,1.071,1.0753,1.0886,1.0892,1.1167,1.1208,1.1338,1.1623,1.1684,1.178,1.1679,1.2352,1.2363,1.2372,1.2318,1.2329,1.2337,0,0,0,0,0,0.9794,0.9961,0.9995,1.0064,1.0458,1.0724,1.0776,1.0916,1.0892,1.0985,1.1144,1.12,1.1728,1.1649,1.1718,1.1823,1.2347,1.236,1.2371,1.2314,1.2327,1.2337,0,0,0,0,0,0,0.9708,0.9998,1.0039,1.0295,1.0483,1.0745,1.0865,1.0925,1.1128,1.1126,1.1297,1.1359,1.161,1.1743,1.1649,1.2068,1.204,1.2066,1.1972,1.1986,1.1995,1.1961,1.1699,0,0,0,0,0,0.9717,0.9902,1.0149,1.0352,1.0443,1.0637,1.0759,1.085,1.1054,1.1136,1.1314,1.1515,1.1727,1.1864,1.2072,1.2337,1.2402,1.2444,1.2453,1.246,1.2483,1.2638,1.2661,1.2417,1.2417,1.2417,0,0,0.9742,0.9923,1.0031,1.0339,1.0495,1.069,1.0704,1.0909,1.1057,1.117,1.1427,1.1564,1.1801,1.2065,1.2192,1.2185,1.2564,1.2475,1.2478,1.2498,1.2653,1.2675,1.2696,1.2425,1.2423,1.2422,0,0,0.9886,1.0039,1.0227,1.0382,1.0616,1.0744,1.0789,1.1042,1.1136,1.1396,1.1485,1.1667,1.2027,1.2193,1.2324,1.2531,1.2593,1.2595,1.2647,1.2796,1.2816,1.2834,1.2913,1.2938,1.2615,1.2615,1.2615,0,0.9889,1.0179,1.0317,1.0518,1.0654,1.0757,1.0953,1.1099,1.1392,1.1486,1.1472,1.1927,1.2093,1.2401,1.2451,1.2552,1.2614,1.2566,1.28,1.282,1.2839,1.2917,1.2945,1.2614,1.2614,1.2614,1.2614,0,1.0174,1.0374,1.0499,1.0773,1.0923,1.1119,1.1293,1.1429,1.1508,1.1639,1.1906,1.2108,1.236,1.2439,1.252,1.2761,1.2749,1.2765,1.2741,1.2859,1.2935,1.2965,1.2613,1.2613,1.2613,1.2614,0,0,1.0281,1.0626,1.067,1.0797,1.1063,1.1225,1.1429,1.167,1.1786,1.1984,1.2165,1.2466,1.2483,1.2632,1.2732,1.2862,1.302,1.2864,1.2873,1.289,1.3304,1.3293,1.3325,1.306,1.3066,1.3071,1.3286,0,1.0462,1.0824,1.0954,1.1255,1.1446,1.1547,1.1726,1.1912,1.2041,1.2226,1.2371,1.2584,1.2587,1.2678,1.2811,1.2972,1.3106,1.2958,1.3237,1.3245,1.3178,1.3364,1.3353,1.3546,1.3316,1.3321,1.3324,0,1.0723,1.0919,1.1237,1.1481,1.1566,1.1723,1.1957,1.213,1.2346,1.2431,1.2596,1.2687,1.2912,1.2869,1.3185,1.3081,1.3203,1.3299,1.331,1.3346,1.3295,1.341,1.3611,1.3641,1.3372,1.3368,1.3365,0,1.0775,1.1119,1.1354,1.1459,1.1749,1.1858,1.1985,1.2195,1.2333,1.2539,1.2631,1.2862,1.299,1.3169,1.3323,1.3277,1.3627,1.3596,1.371,1.3706,1.3783,1.3777,1.4011,1.3852,1.3852,1.3851,1.385,0,1.0967,1.1159,1.1382,1.1527,1.1747,1.1897,1.2113,1.2248,1.2434,1.2612,1.2715,1.2882,1.3072,1.3265,1.3387,1.3633,1.3689,1.3769,1.38,1.3763,1.3753,1.3849,1.3842,1.3859,1.3857,1.3856,1.3854,0,1.1064,1.122,1.1484,1.1735,1.1803,1.1954,1.2173,1.2322,1.2452,1.2678,1.274,1.2949,1.3182,1.3351,1.3653,1.3735,1.4,1.4029,1.3926,1.3943,1.4049,1.4038,1.4357,1.4409,1.4209,1.421,1.4212,0,1.1179,1.1328,1.1594,1.1717,1.1842,1.2041,1.218,1.2335,1.2478,1.2734,1.2854,1.3092,1.3291,1.366,1.3843,1.4076,1.4115,1.421,1.4151,1.411,1.4123,1.4114,1.4133,1.4221,1.4222,1.4223,1.4224,0,1.1368,1.1437,1.1631,1.1853,1.2015,1.2199,1.2385,1.2482,1.2671,1.2827,1.3063,1.3217,1.3523,1.3762,1.4012,1.4151,1.4223,1.424,1.428,1.4246,1.4182,1.4223,1.3955,1.4233,1.4232,1.4232,1.4231,1.4231,1.1482,1.1621,1.1829,1.2043,1.2197,1.2369,1.2521,1.2669,1.2867,1.3124,1.3205,1.3451,1.3668,1.401,1.4151,1.4351,1.4348,1.4404,1.442,1.4433,1.4433,1.4144,1.4396,1.4396,1.4396,1.4396,1.4396,0,1.1681,1.1819,1.2013,1.2267,1.2437,1.248,1.2689,1.2831,1.3043,1.3235,1.3428,1.3702,1.3933,1.4133,1.4375,1.4496,1.4536,1.4555,1.4551,1.4583,1.4419,1.4362,1.452,1.452,1.452,1.4519,1.4519,1.4519,1.1804,1.2042,1.2136,1.2455,1.2594,1.2831,1.2947,1.3108,1.3262,1.3561,1.3751,1.3877,1.4076,1.4332,1.4548,1.4602,1.4689,1.4702,1.4764,1.4608,1.4594,1.458,1.4528,1.4718,1.4718,1.4913,1.4914,1.4916]}]]